Location: Mentone
(34.5413°N, 85.5351°W)
Time: 19:41:52
(UTC-05:00)

UOSAT-12 - Visible Passes

Search period start: 24 April 2018 00:00
Search period end: 04 May 2018 00:00
Orbit: 592 x 661 km, 64.6° (Epoch: 24 April)

Date Brightness Start Highest point End Pass type
(mag) Time Alt. Az. Time Alt. Az. Time Alt. Az.
24 Apr 9.6 03:00:14 14° ESE 03:00:14 14° ESE 03:02:24 10° ENE visible
24 Apr 7.5 04:37:32 30° WSW 04:39:29 50° WNW 04:44:04 10° NNE visible
25 Apr 8.5 03:19:46 33° E 03:19:46 33° E 03:23:33 10° NE visible
25 Apr 8.6 04:57:04 16° W 04:59:28 23° NW 05:03:15 10° N visible
26 Apr 7.2 03:39:13 77° ENE 03:39:13 77° ENE 03:43:39 10° NNE visible
26 Apr 9.3 05:17:56 10° WNW 05:19:39 12° NW 05:21:22 10° NNW visible
27 Apr 9.9 02:21:19 13° ENE 02:21:19 13° ENE 02:22:05 10° ENE visible
27 Apr 7.7 03:58:36 42° WNW 03:58:44 42° WNW 04:03:13 10° NNE visible
28 Apr 9.2 02:40:38 25° ENE 02:40:38 25° ENE 02:42:54 10° NE visible
28 Apr 8.8 04:17:55 19° WNW 04:18:45 20° NW 04:22:16 10° N visible
29 Apr 8.4 02:59:55 38° NNE 02:59:55 38° NNE 03:02:52 10° NNE visible
29 Apr 9.5 04:38:36 10° NW 04:38:59 10° NW 04:39:22 10° NW visible
30 Apr 8.5 03:19:08 31° NNW 03:19:08 31° NNW 03:22:20 10° NNE visible
01 May 9.7 02:01:01 17° NE 02:01:01 17° NE 02:02:13 10° NE visible
01 May 9.1 03:38:17 18° NW 03:38:17 18° NW 03:41:14 10° N visible
02 May 9.3 02:20:09 24° NNE 02:20:09 24° NNE 02:22:04 10° NNE visible
03 May 9.2 02:39:13 22° NNW 02:39:13 22° NNW 02:41:26 10° N visible
